Time,TemperatureF,DewpointF,PressureIn,WindDirection,WindDirectionDegrees,WindSpeedMPH,WindSpeedGustMPH,Humidity,HourlyPrecipIn,Conditions,Clouds,dailyrainin,SoftwareType,DateUTC
2013-06-19 00:04:00,80.2,57.0,29.88,NNW,346,10.1,10.1,45,0.00,,---,0.00,VWS V14.01,2013-06-18 21:04:00,
2013-06-19 00:09:00,80.1,56.8,29.88,NNW,337,6.3,13.2,45,0.00,,---,0.00,VWS V14.01,2013-06-18 21:09:00,
2013-06-19 00:15:00,80.1,56.2,29.88,NNW,342,6.3,8.7,44,0.00,,---,0.00,VWS V14.01,2013-06-18 21:15:00,
2013-06-19 00:21:00,80.1,56.2,29.88,North,4,8.3,9.6,44,0.00,,---,0.00,VWS V14.01,2013-06-18 21:21:00,
2013-06-19 00:26:00,80.1,56.2,29.88,North,357,6.3,6.3,44,0.00,,---,0.00,VWS V14.01,2013-06-18 21:26:00,
2013-06-19 00:31:00,80.1,56.2,29.88,East,83,3.1,5.8,44,0.00,,---,0.00,VWS V14.01,2013-06-18 21:31:00,
2013-06-19 00:36:00,80.1,55.6,29.88,NNE,33,11.4,11.4,43,0.00,,---,0.00,VWS V14.01,2013-06-18 21:36:00,
2013-06-19 00:42:00,80.1,55.6,29.88,NNE,12,6.3,10.1,43,0.00,,---,0.00,VWS V14.01,2013-06-18 21:42:00,
2013-06-19 00:47:00,80.1,55.6,29.88,North,11,12.3,12.3,43,0.00,,---,0.00,VWS V14.01,2013-06-18 21:47:00,
2013-06-19 00:53:00,80.1,55.6,29.88,North,8,3.6,12.8,43,0.00,,---,0.00,VWS V14.01,2013-06-18 21:53:00,
2013-06-19 00:58:00,80.1,55.6,29.88,NNE,18,5.8,10.1,43,0.00,,---,0.00,VWS V14.01,2013-06-18 21:58:00,
2013-06-19 01:03:00,79.9,55.4,29.88,NNE,32,8.1,8.1,43,0.00,,---,0.00,VWS V14.01,2013-06-18 22:03:00,
2013-06-19 01:08:00,79.7,55.2,29.88,North,3,4.9,8.1,43,0.00,,---,0.00,VWS V14.01,2013-06-18 22:08:00,
2013-06-19 01:14:00,79.7,55.2,29.88,North,357,10.5,11.0,43,0.00,,---,0.00,VWS V14.01,2013-06-18 22:14:00,
2013-06-19 01:19:00,79.7,55.2,29.88,East,93,5.8,7.6,43,0.00,,---,0.00,VWS V14.01,2013-06-18 22:19:00,
2013-06-19 01:25:00,79.5,55.1,29.88,NE,47,8.1,8.1,43,0.00,,---,0.00,VWS V14.01,2013-06-18 22:25:00,
2013-06-19 01:31:00,79.5,55.1,29.88,North,2,3.6,8.1,43,0.00,,---,0.00,VWS V14.01,2013-06-18 22:31:00,
2013-06-19 01:36:00,79.3,54.9,29.88,North,5,8.7,8.7,43,0.00,,---,0.00,VWS V14.01,2013-06-18 22:36:00,
2013-06-19 01:42:00,79.3,54.9,29.88,NNE,12,12.8,14.5,43,0.00,,---,0.00,VWS V14.01,2013-06-18 22:42:00,
2013-06-19 01:47:00,79.3,54.9,29.88,North,353,8.3,15.0,43,0.00,,---,0.00,VWS V14.01,2013-06-18 22:47:00,
2013-06-19 01:53:00,79.3,54.9,29.88,NNE,16,5.8,10.5,43,0.00,,---,0.00,VWS V14.01,2013-06-18 22:53:00,
2013-06-19 01:59:00,79.3,54.9,29.88,North,350,8.3,13.2,43,0.00,,---,0.00,VWS V14.01,2013-06-18 22:59:00,
2013-06-19 02:04:00,79.3,54.9,29.88,North,357,4.9,8.1,43,0.00,,---,0.00,VWS V14.01,2013-06-18 23:04:00,
2013-06-19 02:10:00,79.2,54.8,29.88,North,2,10.5,10.5,43,0.00,,---,0.00,VWS V14.01,2013-06-18 23:10:00,
2013-06-19 02:15:00,79.2,54.8,29.88,North,6,5.4,11.0,43,0.00,,---,0.00,VWS V14.01,2013-06-18 23:15:00,
2013-06-19 02:21:00,79.0,54.6,29.88,NNE,21,9.2,9.2,43,0.00,,---,0.00,VWS V14.01,2013-06-18 23:21:00,
2013-06-19 02:27:00,79.0,54.6,29.88,North,3,8.3,10.1,43,0.00,,---,0.00,VWS V14.01,2013-06-18 23:27:00,
2013-06-19 02:32:00,79.0,54.6,29.88,NNE,12,6.3,9.2,43,0.00,,---,0.00,VWS V14.01,2013-06-18 23:32:00,
2013-06-19 02:37:00,78.8,54.4,29.88,North,11,5.8,11.9,43,0.00,,---,0.00,VWS V14.01,2013-06-18 23:37:00,
2013-06-19 02:42:00,78.8,54.4,29.88,NNW,336,5.4,8.3,43,0.00,,---,0.00,VWS V14.01,2013-06-18 23:42:00,
2013-06-19 02:48:00,78.6,54.3,29.88,NE,36,4.9,6.3,43,0.00,,---,0.00,VWS V14.01,2013-06-18 23:48:00,
2013-06-19 02:53:00,78.6,54.3,29.88,NNE,12,8.3,9.6,43,0.00,,---,0.00,VWS V14.01,2013-06-18 23:53:00,
2013-06-19 02:59:00,78.6,54.3,29.88,North,6,9.6,9.6,43,0.00,,---,0.00,VWS V14.01,2013-06-18 23:59:00,
2013-06-19 03:04:00,78.4,54.1,29.88,North,6,4.0,8.7,43,0.00,,---,0.00,VWS V14.01,2013-06-19 00:04:00,
2013-06-19 03:10:00,78.4,54.1,29.88,NNE,28,7.6,11.0,43,0.00,,---,0.00,VWS V14.01,2013-06-19 00:10:00,
2013-06-19 03:15:00,78.4,54.1,29.88,North,8,3.6,12.3,43,0.00,,---,0.00,VWS V14.01,2013-06-19 00:15:00,
2013-06-19 03:21:00,78.3,54.0,29.88,ENE,70,11.0,11.0,43,0.00,,---,0.00,VWS V14.01,2013-06-19 00:21:00,
2013-06-19 03:27:00,78.3,54.0,29.88,North,357,5.8,9.6,43,0.00,,---,0.00,VWS V14.01,2013-06-19 00:27:00,
2013-06-19 03:32:00,78.1,53.8,29.88,North,357,8.3,8.3,43,0.00,,---,0.00,VWS V14.01,2013-06-19 00:32:00,
2013-06-19 03:38:00,78.1,53.8,29.88,ENE,63,5.4,10.1,43,0.00,,---,0.00,VWS V14.01,2013-06-19 00:38:00,
2013-06-19 03:44:00,77.9,53.6,29.88,NNW,341,3.1,6.3,43,0.00,,---,0.00,VWS V14.01,2013-06-19 00:44:00,
2013-06-19 03:49:00,77.9,54.3,29.88,ENE,65,5.8,10.5,44,0.00,,---,0.00,VWS V14.01,2013-06-19 00:49:00,
2013-06-19 03:55:00,77.7,54.1,29.88,North,0,8.1,10.1,44,0.00,,---,0.00,VWS V14.01,2013-06-19 00:55:00,
2013-06-19 04:00:00,77.5,53.9,29.88,NNE,16,5.4,10.1,44,0.00,,---,0.00,VWS V14.01,2013-06-19 01:00:00,
2013-06-19 04:05:00,77.5,53.9,29.88,ENE,78,7.6,7.6,44,0.00,,---,0.00,VWS V14.01,2013-06-19 01:05:00,
2013-06-19 04:10:00,77.4,53.8,29.88,North,0,7.6,11.0,44,0.00,,---,0.00,VWS V14.01,2013-06-19 01:10:00,
2013-06-19 04:16:00,77.4,53.8,29.88,East,85,0.0,6.3,44,0.00,,---,0.00,VWS V14.01,2013-06-19 01:16:00,
2013-06-19 04:21:00,77.2,53.6,29.88,East,79,3.1,4.0,44,0.00,,---,0.00,VWS V14.01,2013-06-19 01:21:00,
2013-06-19 04:27:00,77.2,53.0,29.88,NNE,22,0.0,5.8,43,0.00,,---,0.00,VWS V14.01,2013-06-19 01:27:00,
2013-06-19 04:33:00,77.2,53.0,29.88,NE,50,0.0,4.9,43,0.00,,---,0.00,VWS V14.01,2013-06-19 01:33:00,
2013-06-19 04:38:00,77.0,52.8,29.88,NE,38,4.9,6.3,43,0.00,,---,0.00,VWS V14.01,2013-06-19 01:38:00,
2013-06-19 04:44:00,77.0,52.8,29.88,NNE,33,3.6,8.7,43,0.00,,---,0.00,VWS V14.01,2013-06-19 01:44:00,
2013-06-19 04:49:00,77.0,52.8,29.88,North,353,4.9,6.3,43,0.00,,---,0.00,VWS V14.01,2013-06-19 01:49:00,
2013-06-19 04:55:00,76.8,53.3,29.88,East,81,2.7,3.6,44,0.00,,---,0.00,VWS V14.01,2013-06-19 01:55:00,
2013-06-19 05:01:00,76.8,53.3,29.88,North,357,3.1,4.0,44,0.00,,---,0.00,VWS V14.01,2013-06-19 02:01:00,
2013-06-19 05:06:00,76.8,53.3,29.88,NNE,32,8.3,8.3,44,0.00,,---,0.00,VWS V14.01,2013-06-19 02:06:00,
2013-06-19 05:12:00,76.8,53.3,29.88,NNE,20,3.6,6.3,44,0.00,,---,0.00,VWS V14.01,2013-06-19 02:12:00,
2013-06-19 05:17:00,76.6,53.1,29.88,NE,52,0.0,5.8,44,0.00,,---,0.00,VWS V14.01,2013-06-19 02:17:00,
2013-06-19 05:22:00,76.6,53.1,29.88,North,1,2.7,3.6,44,0.00,,---,0.00,VWS V14.01,2013-06-19 02:22:00,
2013-06-19 05:27:00,76.6,53.1,29.88,NE,34,2.7,4.0,44,0.00,,---,0.00,VWS V14.01,2013-06-19 02:27:00,
2013-06-19 05:33:00,76.6,52.5,29.88,NNE,13,5.4,6.3,43,0.00,,---,0.00,VWS V14.01,2013-06-19 02:33:00,
2013-06-19 05:38:00,76.8,52.7,29.88,NNW,342,3.6,3.6,43,0.00,,---,0.00,VWS V14.01,2013-06-19 02:38:00,
2013-06-19 05:44:00,76.8,52.7,29.88,North,2,3.6,6.7,43,0.00,,---,0.00,VWS V14.01,2013-06-19 02:44:00,
2013-06-19 05:50:00,76.8,52.7,29.88,North,8,5.4,10.1,43,0.00,,---,0.00,VWS V14.01,2013-06-19 02:50:00,
2013-06-19 05:55:00,76.8,53.3,29.88,North,6,5.4,8.7,44,0.00,,---,0.00,VWS V14.01,2013-06-19 02:55:00,
2013-06-19 06:01:00,76.8,53.3,29.88,North,0,5.8,11.0,44,0.00,,---,0.00,VWS V14.01,2013-06-19 03:01:00,
2013-06-19 06:06:00,76.8,53.3,29.88,North,10,4.0,7.6,44,0.00,,---,0.00,VWS V14.01,2013-06-19 03:06:00,
2013-06-19 06:12:00,77.0,53.4,29.88,North,8,6.3,8.7,44,0.00,,---,0.00,VWS V14.01,2013-06-19 03:12:00,
2013-06-19 06:18:00,77.0,53.4,29.88,North,9,6.3,7.6,44,0.00,,---,0.00,VWS V14.01,2013-06-19 03:18:00,
2013-06-19 06:23:00,77.0,53.4,29.88,NNE,22,10.5,10.5,44,0.00,,---,0.00,VWS V14.01,2013-06-19 03:23:00,
2013-06-19 06:29:00,77.2,53.6,29.88,NNE,16,8.7,8.7,44,0.00,,---,0.00,VWS V14.01,2013-06-19 03:29:00,
2013-06-19 06:35:00,77.2,54.2,29.88,NNE,12,8.3,11.0,45,0.00,,---,0.00,VWS V14.01,2013-06-19 03:35:00,
2013-06-19 06:40:00,77.2,54.2,29.88,North,10,8.1,10.5,45,0.00,,---,0.00,VWS V14.01,2013-06-19 03:40:00,
2013-06-19 06:46:00,77.2,54.2,29.88,NNE,13,12.8,12.8,45,0.00,,---,0.00,VWS V14.01,2013-06-19 03:46:00,
2013-06-19 06:51:00,77.2,54.2,29.88,NE,45,8.3,11.0,45,0.00,,---,0.00,VWS V14.01,2013-06-19 03:51:00,
2013-06-19 06:57:00,77.2,54.2,29.88,NNE,33,5.8,10.1,45,0.00,,---,0.00,VWS V14.01,2013-06-19 03:57:00,
2013-06-19 07:01:00,77.0,54.1,29.88,North,353,11.0,11.0,45,0.00,,---,0.00,VWS V14.01,2013-06-19 04:01:00,
2013-06-19 07:02:00,77.0,54.1,29.88,NNE,23,7.6,11.0,45,0.00,,---,0.00,VWS V14.01,2013-06-19 04:02:00,
2013-06-19 07:04:00,77.0,54.7,29.88,North,353,12.8,12.8,46,0.00,,---,0.00,VWS V14.01,2013-06-19 04:04:00,
2013-06-19 07:06:00,77.2,54.8,29.88,North,0,9.6,9.6,46,0.00,,---,0.00,VWS V14.01,2013-06-19 04:06:00,
2013-06-19 07:08:00,77.2,54.2,29.88,NNE,19,7.6,11.0,45,0.00,,---,0.00,VWS V14.01,2013-06-19 04:08:00,
2013-06-19 07:14:00,77.2,54.8,29.88,North,2,5.8,8.3,46,0.00,,---,0.00,VWS V14.01,2013-06-19 04:14:00,
2013-06-19 07:19:00,77.4,55.0,29.88,NNE,23,5.8,7.6,46,0.00,,---,0.00,VWS V14.01,2013-06-19 04:19:00,
2013-06-19 07:25:00,77.5,54.5,29.88,North,357,7.6,10.5,45,0.00,,---,0.00,VWS V14.01,2013-06-19 04:25:00,
2013-06-19 07:31:00,77.5,54.5,29.88,NNE,28,5.4,8.7,45,0.00,,---,0.00,VWS V14.01,2013-06-19 04:31:00,
2013-06-19 07:37:00,77.7,54.7,29.88,NNE,18,4.0,10.5,45,0.00,,---,0.00,VWS V14.01,2013-06-19 04:37:00,
2013-06-19 07:43:00,77.7,54.7,29.88,NNE,19,11.4,11.4,45,0.00,,---,0.00,VWS V14.01,2013-06-19 04:43:00,
2013-06-19 07:48:00,77.9,54.9,29.88,NNE,20,5.8,8.3,45,0.00,,---,0.00,VWS V14.01,2013-06-19 04:48:00,
2013-06-19 07:53:00,77.9,54.9,29.88,NNW,338,6.3,10.5,45,0.00,,---,0.00,VWS V14.01,2013-06-19 04:53:00,
2013-06-19 07:58:00,77.9,54.9,29.88,NNE,23,3.1,6.3,45,0.00,,---,0.00,VWS V14.01,2013-06-19 04:58:00,
2013-06-19 08:04:00,78.1,55.0,29.88,NNE,31,13.2,13.2,45,0.00,,---,0.00,VWS V14.01,2013-06-19 05:04:00,
2013-06-19 08:10:00,78.1,54.4,29.88,North,6,8.3,8.3,44,0.00,,---,0.00,VWS V14.01,2013-06-19 05:10:00,
2013-06-19 08:15:00,78.3,54.6,29.88,North,3,8.3,10.5,44,0.00,,---,0.00,VWS V14.01,2013-06-19 05:15:00,
2013-06-19 08:21:00,78.4,54.7,29.88,NNE,28,8.3,11.4,44,0.00,,---,0.00,VWS V14.01,2013-06-19 05:21:00,
2013-06-19 08:27:00,78.6,54.9,29.88,NNW,346,6.3,8.3,44,0.00,,---,0.00,VWS V14.01,2013-06-19 05:27:00,
2013-06-19 08:32:00,78.6,54.9,29.88,North,357,8.1,8.1,44,0.00,,---,0.00,VWS V14.01,2013-06-19 05:32:00,
2013-06-19 08:38:00,78.8,54.4,29.88,NNE,28,8.3,8.3,43,0.00,,---,0.00,VWS V14.01,2013-06-19 05:38:00,
2013-06-19 08:43:00,79.0,54.6,29.88,North,2,6.7,8.7,43,0.00,,---,0.00,VWS V14.01,2013-06-19 05:43:00,
2013-06-19 08:49:00,79.3,54.9,29.88,NE,56,10.1,12.3,43,0.00,,---,0.00,VWS V14.01,2013-06-19 05:49:00,
2013-06-19 08:55:00,79.5,54.4,29.88,NNE,31,10.1,12.8,42,0.00,,---,0.00,VWS V14.01,2013-06-19 05:55:00,
2013-06-19 09:00:00,79.7,54.6,29.88,NNE,31,5.8,11.0,42,0.00,,---,0.00,VWS V14.01,2013-06-19 06:00:00,
2013-06-19 09:06:00,79.9,54.8,29.88,NNE,30,5.4,11.0,42,0.00,,---,0.00,VWS V14.01,2013-06-19 06:06:00,
2013-06-19 09:11:00,80.2,55.1,29.88,NNE,20,8.3,10.1,42,0.00,,---,0.00,VWS V14.01,2013-06-19 06:11:00,
2013-06-19 09:16:00,80.6,55.4,29.88,ENE,69,5.4,11.0,42,0.00,,---,0.00,VWS V14.01,2013-06-19 06:16:00,
2013-06-19 09:21:00,80.8,55.6,29.88,NNE,24,2.7,7.2,42,0.00,,---,0.00,VWS V14.01,2013-06-19 06:21:00,
2013-06-19 09:27:00,81.0,55.7,29.88,North,357,8.1,8.7,42,0.00,,---,0.00,VWS V14.01,2013-06-19 06:27:00,
2013-06-19 09:32:00,81.1,55.2,29.88,North,1,5.8,15.0,41,0.00,,---,0.00,VWS V14.01,2013-06-19 06:32:00,
2013-06-19 09:38:00,81.0,55.1,29.88,NNE,16,11.4,11.4,41,0.00,,---,0.00,VWS V14.01,2013-06-19 06:38:00,
2013-06-19 09:44:00,81.1,55.2,29.88,NNE,18,7.6,8.1,41,0.00,,---,0.00,VWS V14.01,2013-06-19 06:44:00,
2013-06-19 09:50:00,81.3,55.4,29.88,NNW,339,5.8,6.3,41,0.00,,---,0.00,VWS V14.01,2013-06-19 06:50:00,
2013-06-19 09:56:00,81.9,55.2,29.88,NE,35,8.7,11.0,40,0.00,,---,0.00,VWS V14.01,2013-06-19 06:56:00,
2013-06-19 10:02:00,81.5,54.9,29.88,NNE,16,17.9,17.9,40,0.00,,---,0.00,VWS V14.01,2013-06-19 07:02:00,
2013-06-19 10:08:00,81.5,54.9,29.88,NNE,13,7.6,15.4,40,0.00,,---,0.00,VWS V14.01,2013-06-19 07:08:00,
2013-06-19 10:13:00,81.9,55.2,29.88,NE,40,8.7,16.3,40,0.00,,---,0.00,VWS V14.01,2013-06-19 07:13:00,
2013-06-19 10:18:00,81.9,54.5,29.88,NNE,27,12.3,21.9,39,0.00,,---,0.00,VWS V14.01,2013-06-19 07:18:00,
2013-06-19 10:24:00,81.7,55.7,29.88,East,89,6.7,15.4,41,0.00,,---,0.00,VWS V14.01,2013-06-19 07:24:00,
2013-06-19 10:30:00,82.0,56.0,29.88,North,353,10.5,10.5,41,0.00,,---,0.00,VWS V14.01,2013-06-19 07:30:00,
2013-06-19 10:35:00,82.0,55.4,29.88,NE,43,8.1,12.8,40,0.00,,---,0.00,VWS V14.01,2013-06-19 07:35:00,
2013-06-19 10:42:00,82.4,55.0,29.88,NE,46,10.5,12.8,39,0.00,,---,0.00,VWS V14.01,2013-06-19 07:42:00,
2013-06-19 10:47:00,82.6,55.8,29.88,NE,35,6.3,8.3,40,0.00,,---,0.00,VWS V14.01,2013-06-19 07:47:00,
2013-06-19 10:52:00,82.8,56.0,29.88,NNE,12,8.7,8.7,40,0.00,,---,0.00,VWS V14.01,2013-06-19 07:52:00,
2013-06-19 10:58:00,82.8,56.0,29.88,ESE,119,6.3,9.2,40,0.00,,---,0.00,VWS V14.01,2013-06-19 07:58:00,
2013-06-19 11:03:00,82.4,55.7,29.88,North,0,13.2,15.4,40,0.00,,---,0.00,VWS V14.01,2013-06-19 08:03:00,
2013-06-19 11:08:00,82.9,56.2,29.88,ENE,58,9.2,9.2,40,0.00,,---,0.00,VWS V14.01,2013-06-19 08:08:00,
2013-06-19 11:13:00,82.9,56.2,29.88,NNE,27,12.3,16.3,40,0.00,,---,0.00,VWS V14.01,2013-06-19 08:13:00,
2013-06-19 11:19:00,83.1,55.6,29.88,NE,41,10.5,10.5,39,0.00,,---,0.00,VWS V14.01,2013-06-19 08:19:00,
2013-06-19 11:24:00,83.1,55.6,29.88,ENE,78,8.7,11.9,39,0.00,,---,0.00,VWS V14.01,2013-06-19 08:24:00,
2013-06-19 11:29:00,83.1,56.3,29.88,NE,45,13.2,13.2,40,0.00,,---,0.00,VWS V14.01,2013-06-19 08:29:00,
2013-06-19 11:34:00,83.3,56.5,29.88,East,89,5.8,9.2,40,0.00,,---,0.00,VWS V14.01,2013-06-19 08:34:00,
2013-06-19 11:40:00,83.8,56.3,29.88,NNE,24,12.3,15.0,39,0.00,,---,0.00,VWS V14.01,2013-06-19 08:40:00,
2013-06-19 11:45:00,83.7,56.8,29.88,NNE,16,4.0,10.1,40,0.00,,---,0.00,VWS V14.01,2013-06-19 08:45:00,
2013-06-19 11:51:00,84.0,57.1,29.88,ENE,72,8.1,16.3,40,0.00,,---,0.00,VWS V14.01,2013-06-19 08:51:00,
2013-06-19 11:56:00,84.0,57.1,29.88,NNW,343,15.4,15.4,40,0.00,,---,0.00,VWS V14.01,2013-06-19 08:56:00,
2013-06-19 12:02:00,84.2,56.6,29.88,SSE,162,5.8,15.0,39,0.00,,---,0.00,VWS V14.01,2013-06-19 09:02:00,
2013-06-19 12:07:00,84.0,57.1,29.88,North,357,8.1,12.8,40,0.00,,---,0.00,VWS V14.01,2013-06-19 09:07:00,
2013-06-19 12:13:00,83.8,56.3,29.88,ENE,78,12.8,13.2,39,0.00,,---,0.00,VWS V14.01,2013-06-19 09:13:00,
2013-06-19 12:19:00,84.0,57.1,29.88,NE,38,4.0,8.7,40,0.00,,---,0.00,VWS V14.01,2013-06-19 09:19:00,
2013-06-19 12:24:00,84.7,57.1,29.88,NNE,28,11.0,11.0,39,0.00,,---,0.00,VWS V14.01,2013-06-19 09:24:00,
2013-06-19 12:30:00,84.6,56.9,29.88,North,10,12.3,13.2,39,0.00,,---,0.00,VWS V14.01,2013-06-19 09:30:00,
2013-06-19 12:36:00,84.9,56.5,29.88,North,0,12.8,13.2,38,0.00,,---,0.00,VWS V14.01,2013-06-19 09:36:00,
2013-06-19 12:41:00,85.1,56.7,29.85,ENE,71,8.3,12.8,38,0.00,,---,0.00,VWS V14.01,2013-06-19 09:41:00,
2013-06-19 12:47:00,85.1,55.9,29.85,NNW,348,5.8,8.3,37,0.00,,---,0.00,VWS V14.01,2013-06-19 09:47:00,
2013-06-19 12:52:00,85.1,55.9,29.85,ESE,104,8.7,11.9,37,0.00,,---,0.00,VWS V14.01,2013-06-19 09:52:00,
2013-06-19 12:58:00,85.3,55.3,29.85,NNW,345,13.2,13.2,36,0.00,,---,0.00,VWS V14.01,2013-06-19 09:58:00,
2013-06-19 13:04:00,85.3,55.3,29.85,NNW,333,8.1,17.0,36,0.00,,---,0.00,VWS V14.01,2013-06-19 10:04:00,
2013-06-19 13:09:00,85.3,54.6,29.85,North,6,10.5,13.2,35,0.00,,---,0.00,VWS V14.01,2013-06-19 10:09:00,
2013-06-19 13:15:00,85.8,55.0,29.85,North,357,8.7,8.7,35,0.00,,---,0.00,VWS V14.01,2013-06-19 10:15:00,
2013-06-19 13:20:00,86.0,54.4,29.85,North,8,13.6,15.4,34,0.00,,---,0.00,VWS V14.01,2013-06-19 10:20:00,
2013-06-19 13:26:00,86.0,53.6,29.85,North,10,13.2,13.6,33,0.00,,---,0.00,VWS V14.01,2013-06-19 10:26:00,
2013-06-19 13:31:00,85.6,53.3,29.85,ENE,58,8.7,15.0,33,0.00,,---,0.00,VWS V14.01,2013-06-19 10:31:00,
2013-06-19 13:37:00,85.5,53.9,29.85,NE,53,9.6,10.1,34,0.00,,---,0.00,VWS V14.01,2013-06-19 10:37:00,
2013-06-19 13:42:00,85.5,53.1,29.85,NE,51,17.0,17.0,33,0.00,,---,0.00,VWS V14.01,2013-06-19 10:42:00,
2013-06-19 13:47:00,85.6,53.3,29.85,NNE,31,12.8,16.3,33,0.00,,---,0.00,VWS V14.01,2013-06-19 10:47:00,
2013-06-19 13:53:00,86.5,54.0,29.85,ESE,117,8.1,13.2,33,0.00,,---,0.00,VWS V14.01,2013-06-19 10:53:00,
2013-06-19 13:58:00,86.4,53.0,29.85,NNE,17,8.3,13.6,32,0.00,,---,0.00,VWS V14.01,2013-06-19 10:58:00,
2013-06-19 14:04:00,86.5,53.2,29.85,North,7,8.7,13.2,32,0.00,,---,0.00,VWS V14.01,2013-06-19 11:04:00,
2013-06-19 14:09:00,86.4,53.0,29.85,ESE,108,8.3,15.9,32,0.00,,---,0.00,VWS V14.01,2013-06-19 11:09:00,
2013-06-19 14:15:00,86.7,53.4,29.85,NNE,26,10.5,10.5,32,0.00,,---,0.00,VWS V14.01,2013-06-19 11:15:00,
2013-06-19 14:20:00,87.3,53.8,29.85,NNE,15,8.7,11.0,32,0.00,,---,0.00,VWS V14.01,2013-06-19 11:20:00,
2013-06-19 14:26:00,87.3,53.0,29.85,North,357,14.5,15.0,31,0.00,,---,0.00,VWS V14.01,2013-06-19 11:26:00,
2013-06-19 14:32:00,87.3,53.0,29.85,North,357,13.6,13.6,31,0.00,,---,0.00,VWS V14.01,2013-06-19 11:32:00,
2013-06-19 14:37:00,87.3,53.0,29.85,NNE,23,24.2,24.2,31,0.00,,---,0.00,VWS V14.01,2013-06-19 11:37:00,
2013-06-19 14:43:00,86.5,52.3,29.85,NNW,339,12.3,15.9,31,0.00,,---,0.00,VWS V14.01,2013-06-19 11:43:00,
2013-06-19 14:49:00,86.7,52.5,29.85,East,84,15.0,19.7,31,0.00,,---,0.00,VWS V14.01,2013-06-19 11:49:00,
2013-06-19 14:54:00,86.4,52.2,29.85,ENE,77,15.4,23.3,31,0.00,,---,0.00,VWS V14.01,2013-06-19 11:54:00,
2013-06-19 15:00:00,86.7,52.5,29.85,NE,53,11.0,21.0,31,0.00,,---,0.00,VWS V14.01,2013-06-19 12:00:00,
2013-06-19 15:05:00,86.9,52.7,29.85,East,98,10.1,10.5,31,0.00,,---,0.00,VWS V14.01,2013-06-19 12:05:00,
2013-06-19 15:11:00,87.1,52.8,29.85,NNE,23,4.0,8.3,31,0.00,,---,0.00,VWS V14.01,2013-06-19 12:11:00,
2013-06-19 15:17:00,87.4,53.1,29.85,NNE,12,10.1,10.1,31,0.00,,---,0.00,VWS V14.01,2013-06-19 12:17:00,
2013-06-19 15:22:00,87.6,53.3,29.85,ENE,61,10.5,10.5,31,0.00,,---,0.00,VWS V14.01,2013-06-19 12:22:00,
2013-06-19 15:28:00,87.6,53.3,29.85,NNE,17,10.1,15.4,31,0.00,,---,0.00,VWS V14.01,2013-06-19 12:28:00,
2013-06-19 15:33:00,87.1,52.8,29.85,NE,42,15.9,17.4,31,0.00,,---,0.00,VWS V14.01,2013-06-19 12:33:00,
2013-06-19 15:39:00,87.4,53.1,29.85,North,4,11.4,13.6,31,0.00,,---,0.00,VWS V14.01,2013-06-19 12:39:00,
2013-06-19 15:45:00,87.6,53.3,29.85,NNW,346,10.5,10.5,31,0.00,,---,0.00,VWS V14.01,2013-06-19 12:45:00,
2013-06-19 15:50:00,87.8,52.5,29.85,NNE,22,4.9,8.1,30,0.00,,---,0.00,VWS V14.01,2013-06-19 12:50:00,
2013-06-19 15:55:00,88.2,52.8,29.83,NE,55,8.7,11.0,30,0.00,,---,0.00,VWS V14.01,2013-06-19 12:55:00,
2013-06-19 16:00:00,87.8,53.4,29.83,North,353,13.2,17.4,31,0.00,,---,0.00,VWS V14.01,2013-06-19 13:00:00,
2013-06-19 16:06:00,87.4,53.1,29.83,NNE,21,10.5,12.8,31,0.00,,---,0.00,VWS V14.01,2013-06-19 13:06:00,
2013-06-19 16:11:00,87.4,53.1,29.83,NE,46,15.4,15.4,31,0.00,,---,0.00,VWS V14.01,2013-06-19 13:11:00,
2013-06-19 16:17:00,87.4,53.1,29.83,ENE,57,8.7,21.9,31,0.00,,---,0.00,VWS V14.01,2013-06-19 13:17:00,
2013-06-19 16:22:00,87.3,53.0,29.83,NNE,23,15.0,15.0,31,0.00,,---,0.00,VWS V14.01,2013-06-19 13:22:00,
2013-06-19 16:28:00,87.3,53.0,29.83,NNE,23,8.1,14.1,31,0.00,,---,0.00,VWS V14.01,2013-06-19 13:28:00,
2013-06-19 16:33:00,87.1,52.8,29.83,North,353,7.6,23.3,31,0.00,,---,0.00,VWS V14.01,2013-06-19 13:33:00,
2013-06-19 16:39:00,86.9,52.7,29.83,North,7,10.5,22.8,31,0.00,,---,0.00,VWS V14.01,2013-06-19 13:39:00,
2013-06-19 16:45:00,86.7,52.5,29.83,NW,323,20.1,20.1,31,0.00,,---,0.00,VWS V14.01,2013-06-19 13:45:00,
2013-06-19 16:50:00,86.9,52.7,29.83,ENE,62,4.9,10.5,31,0.00,,---,0.00,VWS V14.01,2013-06-19 13:50:00,
2013-06-19 16:56:00,86.9,52.7,29.83,ENE,57,10.5,10.5,31,0.00,,---,0.00,VWS V14.01,2013-06-19 13:56:00,
2013-06-19 17:02:00,87.1,52.8,29.83,NE,39,8.7,15.4,31,0.00,,---,0.00,VWS V14.01,2013-06-19 14:02:00,
2013-06-19 17:07:00,87.1,52.8,29.83,NE,48,10.1,18.8,31,0.00,,---,0.00,VWS V14.01,2013-06-19 14:07:00,
2013-06-19 17:13:00,86.7,52.5,29.83,NE,38,17.0,17.4,31,0.00,,---,0.00,VWS V14.01,2013-06-19 14:13:00,
2013-06-19 17:19:00,86.0,51.9,29.83,ENE,78,13.6,17.4,31,0.00,,---,0.00,VWS V14.01,2013-06-19 14:19:00,
2013-06-19 17:24:00,85.8,52.6,29.83,North,10,7.6,18.3,32,0.00,,---,0.00,VWS V14.01,2013-06-19 14:24:00,
2013-06-19 17:29:00,86.4,52.2,29.83,NNE,13,8.7,15.9,31,0.00,,---,0.00,VWS V14.01,2013-06-19 14:29:00,
2013-06-19 17:34:00,86.5,52.3,29.83,NE,55,15.0,16.8,31,0.00,,---,0.00,VWS V14.01,2013-06-19 14:34:00,
2013-06-19 17:40:00,86.4,52.2,29.83,NNE,32,15.0,15.4,31,0.00,,---,0.00,VWS V14.01,2013-06-19 14:40:00,
2013-06-19 17:45:00,85.8,51.7,29.83,NNE,26,8.1,19.7,31,0.00,,---,0.00,VWS V14.01,2013-06-19 14:45:00,
2013-06-19 17:51:00,86.2,52.0,29.83,NE,46,10.5,10.5,31,0.00,,---,0.00,VWS V14.01,2013-06-19 14:51:00,
2013-06-19 17:56:00,85.6,52.4,29.83,NNW,330,13.6,26.6,32,0.00,,---,0.00,VWS V14.01,2013-06-19 14:56:00,
2013-06-19 18:01:00,85.6,52.4,29.83,NW,306,12.8,12.8,32,0.00,,---,0.00,VWS V14.01,2013-06-19 15:01:00,
2013-06-19 18:06:00,85.3,52.1,29.83,NNE,28,10.5,16.8,32,0.00,,---,0.00,VWS V14.01,2013-06-19 15:06:00,
2013-06-19 18:12:00,85.3,52.1,29.83,ESE,123,15.4,15.4,32,0.00,,---,0.00,VWS V14.01,2013-06-19 15:12:00,
2013-06-19 18:18:00,84.9,51.8,29.83,NE,34,13.2,21.0,32,0.00,,---,0.00,VWS V14.01,2013-06-19 15:18:00,
2013-06-19 18:23:00,85.1,52.0,29.83,East,87,10.5,20.1,32,0.00,,---,0.00,VWS V14.01,2013-06-19 15:23:00,
2013-06-19 18:29:00,85.1,52.0,29.83,North,357,8.1,14.5,32,0.00,,---,0.00,VWS V14.01,2013-06-19 15:29:00,
2013-06-19 18:34:00,84.9,51.8,29.83,North,357,8.3,10.1,32,0.00,,---,0.00,VWS V14.01,2013-06-19 15:34:00,
2013-06-19 18:39:00,84.7,51.6,29.83,NE,39,5.4,11.4,32,0.00,,---,0.00,VWS V14.01,2013-06-19 15:39:00,
2013-06-19 18:44:00,85.1,52.0,29.83,NE,40,6.3,15.0,32,0.00,,---,0.00,VWS V14.01,2013-06-19 15:44:00,
2013-06-19 18:50:00,85.1,52.0,29.83,NE,43,8.1,13.2,32,0.00,,---,0.00,VWS V14.01,2013-06-19 15:50:00,
2013-06-19 18:55:00,84.9,51.8,29.83,NE,40,8.7,12.3,32,0.00,,---,0.00,VWS V14.01,2013-06-19 15:55:00,
2013-06-19 19:01:00,84.7,51.6,29.83,NE,37,11.0,13.2,32,0.00,,---,0.00,VWS V14.01,2013-06-19 16:01:00,
2013-06-19 19:06:00,84.4,51.3,29.83,NE,54,12.8,15.0,32,0.00,,---,0.00,VWS V14.01,2013-06-19 16:06:00,
2013-06-19 19:12:00,84.2,52.0,29.83,NE,52,13.2,23.3,33,0.00,,---,0.00,VWS V14.01,2013-06-19 16:12:00,
2013-06-19 19:17:00,84.2,52.0,29.83,East,87,11.9,15.0,33,0.00,,---,0.00,VWS V14.01,2013-06-19 16:17:00,
2013-06-19 19:23:00,84.0,51.8,29.83,North,9,9.2,11.0,33,0.00,,---,0.00,VWS V14.01,2013-06-19 16:23:00,
2013-06-19 19:28:00,84.0,52.7,29.83,NE,34,8.7,8.7,34,0.00,,---,0.00,VWS V14.01,2013-06-19 16:28:00,
2013-06-19 19:33:00,83.8,52.5,29.83,NNE,25,8.1,8.7,34,0.00,,---,0.00,VWS V14.01,2013-06-19 16:33:00,
2013-06-19 19:39:00,83.5,52.2,29.83,NNE,32,12.3,13.2,34,0.00,,---,0.00,VWS V14.01,2013-06-19 16:39:00,
2013-06-19 19:44:00,83.5,53.0,29.83,NNE,31,8.3,12.8,35,0.00,,---,0.00,VWS V14.01,2013-06-19 16:44:00,
2013-06-19 19:50:00,83.3,52.0,29.83,North,0,7.2,8.3,34,0.00,,---,0.00,VWS V14.01,2013-06-19 16:50:00,
2013-06-19 19:55:00,83.1,52.7,29.83,NNE,25,15.4,15.4,35,0.00,,---,0.00,VWS V14.01,2013-06-19 16:55:00,
2013-06-19 20:01:00,82.8,52.3,29.83,North,10,8.1,11.4,35,0.00,,---,0.00,VWS V14.01,2013-06-19 17:01:00,
2013-06-19 20:07:00,82.6,51.4,29.83,North,2,5.8,21.0,34,0.00,,---,0.00,VWS V14.01,2013-06-19 17:07:00,
2013-06-19 20:12:00,82.4,51.2,29.85,NE,45,8.3,13.2,34,0.00,,---,0.00,VWS V14.01,2013-06-19 17:12:00,
2013-06-19 20:18:00,82.2,51.1,29.85,NNE,27,9.6,10.5,34,0.00,,---,0.00,VWS V14.01,2013-06-19 17:18:00,
2013-06-19 20:23:00,82.2,51.1,29.85,NW,326,4.9,10.1,34,0.00,,---,0.00,VWS V14.01,2013-06-19 17:23:00,
2013-06-19 20:29:00,81.9,50.8,29.85,North,0,8.1,12.8,34,0.00,,---,0.00,VWS V14.01,2013-06-19 17:29:00,
2013-06-19 20:34:00,81.7,50.6,29.85,ENE,59,5.8,8.3,34,0.00,,---,0.00,VWS V14.01,2013-06-19 17:34:00,
2013-06-19 20:40:00,81.5,50.5,29.85,NE,42,10.5,10.5,34,0.00,,---,0.00,VWS V14.01,2013-06-19 17:40:00,
2013-06-19 20:45:00,81.5,50.5,29.85,ENE,69,3.6,7.6,34,0.00,,---,0.00,VWS V14.01,2013-06-19 17:45:00,
2013-06-19 20:50:00,81.3,50.3,29.85,East,97,5.4,11.9,34,0.00,,---,0.00,VWS V14.01,2013-06-19 17:50:00,
2013-06-19 20:56:00,81.1,50.9,29.85,SSE,168,3.6,13.2,35,0.00,,---,0.00,VWS V14.01,2013-06-19 17:56:00,
2013-06-19 21:01:00,81.0,50.8,29.85,NE,51,8.7,8.7,35,0.00,,---,0.00,VWS V14.01,2013-06-19 18:01:00,
2013-06-19 21:07:00,80.8,51.4,29.85,North,353,6.3,8.1,36,0.00,,---,0.00,VWS V14.01,2013-06-19 18:07:00,
2013-06-19 21:12:00,80.8,51.4,29.85,ENE,58,2.2,12.3,36,0.00,,---,0.00,VWS V14.01,2013-06-19 18:12:00,
2013-06-19 21:18:00,80.6,52.0,29.85,ENE,67,4.9,8.1,37,0.00,,---,0.00,VWS V14.01,2013-06-19 18:18:00,
2013-06-19 21:23:00,80.6,52.0,29.85,ENE,74,5.8,5.8,37,0.00,,---,0.00,VWS V14.01,2013-06-19 18:23:00,
2013-06-19 21:29:00,80.4,52.5,29.85,NNE,19,5.8,8.1,38,0.00,,---,0.00,VWS V14.01,2013-06-19 18:29:00,
2013-06-19 21:35:00,80.4,52.5,29.85,NE,46,8.3,8.3,38,0.00,,---,0.00,VWS V14.01,2013-06-19 18:35:00,
2013-06-19 21:40:00,80.4,52.5,29.85,NE,54,5.8,5.8,38,0.00,,---,0.00,VWS V14.01,2013-06-19 18:40:00,
2013-06-19 21:46:00,80.4,53.2,29.85,ENE,66,3.1,8.7,39,0.00,,---,0.00,VWS V14.01,2013-06-19 18:46:00,
2013-06-19 21:52:00,80.2,53.1,29.85,NE,53,8.7,8.7,39,0.00,,---,0.00,VWS V14.01,2013-06-19 18:52:00,
2013-06-19 21:57:00,80.2,53.1,29.85,NNE,23,0.0,6.3,39,0.00,,---,0.00,VWS V14.01,2013-06-19 18:57:00,
2013-06-19 22:03:00,80.2,53.8,29.85,NNE,25,0.0,3.6,40,0.00,,---,0.00,VWS V14.01,2013-06-19 19:03:00,
2013-06-19 22:08:00,80.1,54.3,29.85,NNE,18,2.7,2.7,41,0.00,,---,0.00,VWS V14.01,2013-06-19 19:08:00,
2013-06-19 22:14:00,79.9,54.8,29.85,NNE,20,8.7,8.7,42,0.00,,---,0.00,VWS V14.01,2013-06-19 19:14:00,
2013-06-19 22:20:00,79.9,54.8,29.85,ESE,103,4.0,5.4,42,0.00,,---,0.00,VWS V14.01,2013-06-19 19:20:00,
2013-06-19 22:25:00,79.9,54.8,29.85,NE,55,10.1,10.1,42,0.00,,---,0.00,VWS V14.01,2013-06-19 19:25:00,
2013-06-19 22:31:00,79.9,54.8,29.85,ESE,108,3.6,3.6,42,0.00,,---,0.00,VWS V14.01,2013-06-19 19:31:00,
2013-06-19 22:36:00,79.7,54.6,29.85,ENE,58,4.5,4.5,42,0.00,,---,0.00,VWS V14.01,2013-06-19 19:36:00,
2013-06-19 22:42:00,79.7,54.6,29.85,ENE,75,3.1,4.0,42,0.00,,---,0.00,VWS V14.01,2013-06-19 19:42:00,
2013-06-19 22:48:00,79.5,54.4,29.85,ENE,59,5.8,10.5,42,0.00,,---,0.00,VWS V14.01,2013-06-19 19:48:00,
2013-06-19 22:53:00,79.7,54.6,29.85,ENE,62,3.6,4.0,42,0.00,,---,0.00,VWS V14.01,2013-06-19 19:53:00,
2013-06-19 22:58:00,79.7,54.6,29.85,NE,45,8.7,9.6,42,0.00,,---,0.00,VWS V14.01,2013-06-19 19:58:00,
2013-06-19 23:03:00,79.7,54.6,29.85,NE,37,2.7,5.4,42,0.00,,---,0.00,VWS V14.01,2013-06-19 20:03:00,
2013-06-19 23:09:00,79.7,54.6,29.85,ESE,122,3.6,8.3,42,0.00,,---,0.00,VWS V14.01,2013-06-19 20:09:00,
2013-06-19 23:14:00,79.7,54.6,29.85,East,79,10.5,10.5,42,0.00,,---,0.00,VWS V14.01,2013-06-19 20:14:00,
2013-06-19 23:20:00,79.7,54.6,29.85,NNE,28,4.0,8.1,42,0.00,,---,0.00,VWS V14.01,2013-06-19 20:20:00,
2013-06-19 23:25:00,79.7,54.6,29.85,North,10,4.0,10.5,42,0.00,,---,0.00,VWS V14.01,2013-06-19 20:25:00,
2013-06-19 23:31:00,79.7,54.6,29.85,NE,36,8.1,8.1,42,0.00,,---,0.00,VWS V14.01,2013-06-19 20:31:00,
2013-06-19 23:36:00,79.7,54.6,29.85,NNW,343,3.1,6.3,42,0.00,,---,0.00,VWS V14.01,2013-06-19 20:36:00,
2013-06-19 23:42:00,79.7,54.6,29.85,NNE,20,10.1,10.1,42,0.00,,---,0.00,VWS V14.01,2013-06-19 20:42:00,
2013-06-19 23:47:00,79.7,54.6,29.85,NE,51,6.3,8.1,42,0.00,,---,0.00,VWS V14.01,2013-06-19 20:47:00,
2013-06-19 23:52:00,79.9,54.8,29.85,NE,46,5.4,8.3,42,0.00,,---,0.00,VWS V14.01,2013-06-19 20:52:00,
2013-06-19 23:58:00,79.9,54.8,29.83,NNE,14,5.8,11.0,42,0.00,,---,0.00,VWS V14.01,2013-06-19 20:58:00,